TIME,DELAY(SENSOR),PRES,T(CTD),SAL,OXYGEN,RAWTEMP,T(OPTODE),TCPHASE,FLUOR,BETA(BETA700),BETA(BETA412),BETA(BETA440),CDOM,C(CSC),ED(ED412.40),ED(ED444.00),ED(ED489.70),ED(ED554.30),LU(LU411.80),LU(LU443.40),LU(LU489.60),LU(LU554.10),COMP,TILTX,TILTX(TILTY),CHECK
1345497972,5810,496.4500122070312500,6.4484000205993650,34.2282981872558600,50.1024589538574200,604.7667236328125000,6.4301757812500000,52.8543205261230500,53,107,87,81,81,15324,2147752530,2147416475,2148002304,2147875090,2147632402,2147074953,2148249270,2147197878,316,4,13,57576
1345498087,5807,485.0899963378906000,6.4991998672485350,34.2044982910156250,55.6652107238769500,604.5938110351562000,6.4357719421386720,52.0666503906250000,52,105,91,80,80,15326,2147751588,2147420059,2148005851,2147874962,2147633956,2147076745,2148242587,2147198838,855,5,13,33740
1345498204,5807,473.6900024414062500,6.4777002334594730,34.1656990051269500,69.0884017944336000,603.8682861328125000,6.4592361450195310,50.2871017456054700,53,105,92,80,80,15326,2147753956,2147419529,2148002221,2147870646,2147630198,2147078720,2148244370,2147200694,1067,5,13,57344
1345498319,5808,462.9200134277344000,6.5503001213073730,34.1605987548828100,72.6737213134765600,601.6400756835938000,6.5312728881835940,49.8135299682617200,52,104,86,81,81,15325,2147753280,2147419474,2148005120,2147873856,2147631926,2147075410,2148245220,2147200566,1687,4,13,9521
1345498434,5807,452.7099914550781000,6.6128001213073730,34.1562004089355500,75.1785964965820300,599.4500732421875000,6.6020278930664060,49.4734611511230500,52,105,89,80,79,15324,2147748306,2147422262,2148004937,2147876800,2147631844,2147076397,2148243428,2147202825,1107,4,13,41155
1345498563,5810,441.9299926757812500,6.8035998344421390,34.1488990783691400,80.3787307739257800,594.0037231445312000,6.7777981758117680,48.7782096862793000,51,105,87,80,81,15325,2147749184,2147419611,2148002578,2147871689,2147629787,2147079296,2148238829,2147205440,552,5,13,19329
1345498702,5807,430.9200134277344000,6.9801001548767090,34.1320991516113300,89.5378036499023400,588.3967285156250000,6.9584598541259770,47.6468887329101560,51,107,89,81,79,15327,2147749568,2147421906,2148004150,2147872475,2147633801,2147077476,2148243062,2147197696,1253,4,13,49956
1345498861,5802,417.7699890136719000,7.2100000381469730,34.1212997436523440,98.6753082275390600,580.9542846679688000,7.1978130340576170,46.5381584167480500,51,103,91,81,80,15327,2147749485,2147420114,2148005577,2147871561,2147626221,2147081910,2148241069,2147201581,3527,4,13,47445
1345498976,5809,406.5100097656250000,7.3280000686645510,34.1026000976562500,108.4000015258789000,576.4102783203125000,7.3436999320983890,45.4564094543457000,51,107,88,80,78,15328,2147747629,2147420004,2148007798,2147875776,2147626989,2147082221,2148242048,2147202157,484,4,12,25847
1345499091,5806,395.3699951171875000,7.6487002372741700,34.1071014404296900,115.8369979858398400,567.1768188476562000,7.6395912170410160,44.5697593688964840,51,106,89,81,78,15328,2147746304,2147418669,2148004553,2147874642,2147626825,2147082724,2148239670,2147198957,272,4,13,19943
1345499208,5809,383.7999877929687500,7.8776001930236820,34.1055984497070300,124.3375015258789000,560.4279785156250000,7.8553872108459470,43.6483497619628900,50,105,90,80,76,15328,2147741860,2147420178,2148002651,2147872301,2147623990,2147085284,2148239899,2147201792,535,4,13,23814
1345499323,5805,372.2399902343750000,8.0499000549316400,34.1050987243652340,128.9662017822265600,554.8875122070312000,8.0322551727294920,43.1289710998535160,50,104,86,80,77,15325,2147745298,2147421385,2148006427,2147873947,2147623323,2147081581,2148239387,2147205814,3049,4,13,18091
1345499438,5806,360.3599853515625000,8.2653999328613280,34.1151008605957000,135.7295989990234400,547.4157714843750000,8.2703695297241210,42.3994712829589840,50,109,91,81,76,15324,2147742948,2147421065,2148003492,2147870445,2147623634,2147088210,2148233828,2147204553,2674,4,13,43470
1345499556,5810,349.9899902343750000,8.3942003250122070,34.1174011230468750,139.7590942382812500,543.9027099609375000,8.3821697235107420,41.9896507263183600,50,105,88,80,76,15329,2147745097,2147418861,2148005385,2147868598,2147621522,2147088475,2148236809,2147202596,2527,4,13,46533
1345499743,5809,339.7200012207031000,8.6104001998901370,34.1188011169433600,146.1089935302734400,537.2692260742188000,8.5929994583129880,41.3394317626953100,50,104,89,80,75,15325,2147745590,2147424256,2148006180,2147872045,2147620150,2147095378,2148234779,2147201225,885,4,13,41842
1345499947,5805,327.8800048828125000,9.1989002227783200,34.1197013854980500,160.9111938476562500,518.7152709960938000,9.1808671951293950,39.8382911682128900,50,106,89,79,74,15325,2147740434,2147422107,2148009078,2147874761,2147617115,2147093010,2148236498,2147203456,585,4,13,7350
1345500142,5806,315.3099975585937500,9.7856998443603520,34.1366996765136700,177.4129943847656200,499.9411926269531000,9.7731037139892580,38.3083992004394500,50,105,90,80,72,15325,2147741760,2147421293,2148007058,2147873216,2147613412,2147097353,2148231067,2147203419,1707,4,13,37949
1345500270,5806,303.4500122070312500,9.9316997528076170,34.1380004882812500,181.6257934570312500,494.9585876464844000,9.9298629760742190,37.9323692321777340,49,105,88,81,73,15327,2147737819,2147426331,2148016402,2147871652,2147615634,2147104155,2148230409,2147202560,1932,5,14,53634
1345500385,5808,292.1900024414062500,10.2117004394531250,34.1343994140625000,192.6329040527343800,486.1076049804687500,10.2079095840454100,37.0538291931152340,50,104,88,79,71,15330,2147738541,2147424722,2148016338,2147869613,2147614436,2147104448,2148230272,2147204864,2493,4,13,19497
1345500502,5810,281.1199951171875000,10.5860004425048830,34.1447982788085940,201.8697967529297000,474.0729064941406000,10.5851497650146480,36.2743492126464840,50,104,90,81,72,15327,2147736704,2147430902,2148026651,2147872548,2147611218,2147109622,2148236754,2147204726,1356,4,13,62254
1345500629,5807,269.8800048828125000,11.3823003768920900,34.1831016540527340,217.8076019287109400,449.2734069824219000,11.3596897125244140,34.9376716613769500,49,103,86,80,70,15329,2147731136,2147432027,2148033316,2147871680,2147608201,2147111250,2148235611,2147206454,422,4,14,3032
1345500746,5807,259.8699951171875000,11.6443004608154300,34.2047996520996100,228.4512939453125000,439.9034118652344000,11.6513996124267580,34.2102394104003900,49,102,91,79,68,15328,2147735890,2147445833,2148090779,2147870500,2147605933,2147125714,2148262308,2147209426,3514,4,14,42648
1345500885,5806,248.6399993896484400,12.1293001174926760,34.2163009643554700,231.1114959716797000,424.8778076171875000,12.1182098388671880,33.8346900939941400,47,103,88,80,68,15328,2147735926,2147454848,2148122422,2147871625,2147603867,2147131693,2148274907,2147210102,2197,4,14,46218
1345501036,5809,237.8300018310547000,12.5241003036499020,34.2164993286132800,219.9463043212890600,409.7087097167969000,12.5883302688598630,34.1931381225585940,48,104,89,79,68,15324,2147732397,2147447542,2148087067,2147872493,2147603977,2147133193,2148251648,2147207286,1629,4,13,30434
1345501183,5808,226.5599975585937500,13.3177995681762700,34.2608985900878900,216.4319000244140600,386.3179016113281000,13.3111896514892580,34.0255317687988300,49,104,89,79,68,15325,2147731035,2147479606,2148184274,2147870793,2147598390,2147152859,2148293796,2147214802,1301,4,13,59796
1345501322,5811,215.2100067138672000,14.2707004547119140,34.3707008361816400,222.3119049072265600,355.7314147949219000,14.2531499862670900,33.2423591613769500,48,105,88,79,66,15321,2147734729,2147509842,2148263515,2147871451,2147597394,2147178816,2148335241,2147213156,2962,4,13,50288
1345501451,5810,204.0000000000000000,15.3168001174926760,34.4584999084472660,220.6983947753906200,320.6778869628906000,15.3289804458618160,32.8122291564941400,48,103,85,79,66,15318,2147733220,2147530770,2148319844,2147869028,2147594386,2147199963,2148357586,2147215414,1181,3,13,14627
1345501530,5810,197.3800048828125000,15.7866001129150390,34.4880981445312500,220.0018005371093800,304.9292907714844000,15.8113203048706050,32.6210594177246100,48,105,86,80,66,15319,2147736091,2147536448,2148309805,2147870884,2147593462,2147208768,2148352896,2147219401,268,4,14,20562
1345501585,5808,192.6499938964843800,16.1077003479003900,34.5066986083984400,217.8206024169922000,295.6545104980469000,16.0951499938964840,32.6043510437011700,49,102,90,80,67,15315,2147741961,2147568768,2148395867,2147872630,2147592832,2147227382,2148390016,2147219236,550,4,14,45039
1345501640,5807,187.8399963378906200,16.8297004699707030,34.5937004089355500,214.4098052978515600,272.0859985351562500,16.8157901763916000,32.4525794982910160,49,105,89,81,65,15317,2147761344,2147709723,2148784210,2147871552,2147601206,2147305389,2148579940,2147235620,1225,4,14,49001
1345501695,5808,183.1100006103515600,17.0713005065917970,34.6282005310058600,215.6239013671875000,263.8503112792969000,17.0674495697021500,32.2697982788085940,50,103,91,81,67,15313,2147762788,2147705517,2148743177,2147876050,2147597677,2147311296,2148556205,2147234678,1742,4,14,8438
1345501770,5807,177.2400054931640600,17.2639999389648440,34.6567993164062500,216.2097930908203000,257.9927978515625000,17.2464008331298830,32.1561012268066400,50,105,90,81,66,15312,2147786953,2147830500,2149056813,2147876644,2147605604,2147382390,2148700077,2147244745,2096,3,15,48067
1345501825,5811,173.6999969482422000,17.3526000976562500,34.6684989929199200,216.2698059082031200,254.0702056884765600,17.3662204742431640,32.0974197387695300,51,105,88,81,66,15308,2147793161,2147844169,2149075309,2147875291,2147607899,2147392155,2148709101,2147247149,2019,2,14,26389
1345501880,5810,170.5899963378906200,17.7889003753662100,34.7317008972168000,215.9653015136718800,240.7366027832031200,17.7734603881835940,31.9274196624755860,53,105,87,81,65,15309,2147769133,2147708726,2148700653,2147876534,2147597266,2147323090,2148526994,2147232091,1623,3,15,54248
1345501971,5808,166.6999969482422000,17.9130001068115230,34.7550010681152340,217.1403045654297000,237.0366973876953000,17.8864498138427730,31.8130302429199220,52,111,88,81,66,15302,2147774153,2147724827,2148716434,2147875282,2147601051,2147336640,2148545856,2147237339,1057,3,15,62528
1345502076,5811,162.8500061035156200,17.9878997802734380,34.7733993530273440,217.6114959716797000,233.7346954345703000,17.9872894287109380,31.7423496246337900,54,108,89,80,66,15301,2147811940,2147886537,2149091172,2147874733,2147614921,2147424365,2148710921,2147246317,2064,3,15,51842
1345502179,5808,159.0800018310547000,18.2721004486084000,34.8126983642578100,217.4389038085937500,224.7738952636718800,18.2609291076660160,31.6277008056640620,56,111,88,81,65,15300,2147924178,2148275638,2150021613,2147880877,2147657728,2147646628,2149161682,2147282441,3142,3,15,42237
1345502294,5810,154.5399932861328000,18.7562999725341800,34.8722000122070300,216.9403076171875000,208.9584045410156200,18.7439403533935550,31.4369506835937500,59,107,91,80,64,15284,2147970441,2148367616,2150170779,2147886043,2147674395,2147710363,2149237668,2147283894,163,3,15,50880
1345502393,5812,149.9299926757812500,19.0720005035400400,34.9177017211914060,216.9311981201172000,198.1161041259765600,19.0751304626464840,31.2898101806640620,63,111,90,82,64,15290,2147924617,2148140150,2149564589,2147880493,2147655990,2147573860,2148940864,2147265408,233,3,15,26790
1345502460,5805,146.0700073242187500,19.3633995056152340,34.9500999450683600,216.6441040039062500,189.2353973388672000,19.3464794158935550,31.1845493316650400,66,111,89,83,64,15285,2147957184,2148198683,2149647570,2147884480,2147670326,2147610038,2148972416,2147268022,377,3,15,30024
1345502527,5810,142.5500030517578000,19.6173992156982420,34.9730987548828100,215.4467926025390600,182.9082031250000000,19.5398502349853500,31.1622200012207030,71,116,90,81,65,15278,2148201124,2148907017,2151177508,2147896347,2147765229,2147995885,2149691200,2147316964,651,4,15,17942
1345502606,5809,138.7599945068359400,19.8565998077392580,35.0047988891601560,214.8341979980468800,173.4613037109375000,19.8286590576171880,31.0671806335449220,78,116,92,83,64,15276,2148353051,2149260534,2151857554,2147903533,2147826468,2148193837,2150006336,2147341796,1334,3,15,36151
1345502699,5809,134.9100036621093800,19.8799991607666000,35.0120010375976560,214.9897003173828000,171.9351959228515600,19.8753299713134770,31.0384693145751950,75,116,90,83,65,15274,2148483739,2149494272,2152255369,2147914770,2147877513,2148311195,2150183625,2147355245,1175,3,15,61046
1345502814,5808,131.0299987792968800,20.1403999328613280,35.0320014953613300,214.5117950439453000,164.4819030761718800,20.1032905578613280,30.9638996124267580,92,121,90,82,64,15258,2148632036,2149699053,2152530313,2147922048,2147922194,2148377472,2150255140,2147366281,1923,3,15,28394
1345502965,5808,127.4400024414062500,20.6061992645263670,35.0919990539550800,216.6640014648437500,148.7075958251953000,20.5860900878906250,30.6401100158691400,101,119,89,84,65,15243,2149005339,2150388534,2153812068,2147947428,2148046436,2148675373,2150738587,2147403803,1767,2,15,64182
1345503104,5810,122.8600006103515600,20.8574008941650400,35.1283988952636700,220.5269927978515600,140.6665039062500000,20.8323898315429700,30.3344993591308600,99,122,89,81,63,15240,2148778212,2149612790,2152057380,2147933988,2147975734,2148293677,2149987803,2147354432,474,3,15,12260
1345503195,5810,118.7500000000000000,21.0608005523681640,35.1459007263183600,221.9351043701172000,132.8244934082031200,21.0727291107177730,30.1598300933837900,110,122,91,82,63,15230,2149906477,2151772050,2156107090,2148019053,2148404580,2149292763,2151619218,2147481737,173,2,15,60917
1345503286,5808,114.9100036621093800,21.3924007415771500,35.1908988952636700,224.6260986328125000,122.9711990356445300,21.3749408721923830,29.8964500427246100,120,127,92,85,62,15205,2150343030,2152363602,2156952448,2148050294,2148565595,2149521170,2151926125,2147515693,2606,2,15,47733
1345503391,5810,110.8499984741211000,21.4848995208740230,35.2081985473632800,229.2281036376953000,119.9120025634765600,21.4688205718994140,29.6311607360839840,122,129,92,85,61,15211,2150898614,2153151808,2158103433,2148097664,2148803730,2149867264,2152348077,2147558290,1917,3,15,60727
1345503494,5809,106.8199996948242200,21.5487003326416000,35.2047004699707000,232.0585937500000000,117.3748016357421900,21.5466995239257800,29.4624195098876950,127,133,92,84,62,15190,2151534080,2153985883,2159248649,2148153051,2149089956,2150244589,2152808310,2147606208,2286,2,16,53030
1345503609,5808,102.9100036621093800,21.7733993530273440,35.1981010437011700,233.4757995605468800,111.2378997802734400,21.7351608276367200,29.3161506652832030,148,141,94,87,61,15168,2151644425,2153900525,2158650907,2148164251,2149132580,2150098249,2152434477,2147588434,2116,3,15,2620
1345503723,5807,98.0800018310546900,21.8624000549316400,35.2052993774414060,234.8504028320312500,107.3542022705078100,21.8544807434082030,29.2016105651855470,157,141,93,84,62,15142,2155036571,2159095350,2166525897,2148459547,2150422006,2152209014,2155411318,2147879835,1177,2,15,31529
1345503778,5810,94.9100036621093800,21.8882999420166000,35.2048988342285160,235.3067932128906200,105.7786026000976600,21.9029006958007800,29.1601600646972660,162,142,96,86,62,15127,2156790235,2161507968,2169678820,2148614473,2151035291,2153055670,2156474468,2148006400,354,2,15,57042
1345503833,5809,91.6200027465820300,22.1674003601074220,35.2075004577636700,235.7436981201172000,97.8353729248046900,22.1471405029296880,29.0384998321533200,186,150,94,88,63,15075,2159229632,2164949284,2173998134,2148831908,2151862445,2154184822,2157843492,2148169819,3251,2,15,16574
1345503888,5812,88.6900024414062500,22.2005996704101560,35.2085990905761700,237.5583038330078000,96.3782501220703100,22.1919593811035160,28.9358291625976560,204,152,96,87,62,15046,2161564141,2168174628,2177593481,2149025435,2152626240,2155167451,2158990217,2148329353,2220,2,16,12874
1345503943,5810,86.0100021362304700,22.2600002288818360,35.2071990966796900,238.4149017333984400,94.6119232177734400,22.2463092803955080,28.8741092681884770,210,156,99,90,61,15046,2164168512,2171835538,2181898084,2149272694,2153570349,2156408274,2160463890,2148517065,1476,3,15,38939
1345504000,5809,83.5000000000000000,22.3076992034912100,35.2103004455566400,239.5572967529297000,92.8707809448242200,22.2998905181884770,28.7996501922607420,224,161,100,90,63,15033,2167603565,2176607286,2187188617,2149581952,2154708370,2157886070,2162201005,2148748123,1755,2,16,47936
1345504055,5810,81.2600021362304700,22.5251007080078120,35.2127990722656250,239.8565979003906200,86.5375671386718800,22.4948902130126950,28.7061195373535160,162,154,98,88,59,15064,2171197129,2181560457,2192684041,2149920228,2155988096,2159557796,2164094153,2149009618,1473,2,16,4819
1345504110,5812,79.7399978637695300,22.5792999267578120,35.2111015319824200,240.9244995117187500,83.6143035888671900,22.5849399566650400,28.6206493377685550,153,151,95,88,62,15088,2173029696,2183624265,2194343360,2150066450,2156919625,2160784749,2165371200,2149167414,952,2,16,37363
1345504177,5809,78.5199966430664000,22.6455001831054700,35.2086982727050800,241.1685028076172000,81.8452224731445300,22.6394500732421880,28.5875205993652340,124,143,94,88,60,15116,2175380690,2186663570,2197714669,2150295808,2157916745,2162162477,2166774436,2149320841,822,2,16,29209
1345504327,5809,75.3600006103515600,22.7120990753173830,35.2067985534668000,240.8078002929687500,79.5812530517578100,22.7092399597167970,28.5751590728759770,98,136,95,86,60,15141,2183103625,2195519835,2206375524,2151039396,2161725778,2167281554,2171635209,2149893339,575,2,15,14221
1345504382,5807,73.0299987792968800,22.8390998840332030,35.2084007263183600,240.3701019287109400,75.7661514282226600,22.8268699645996100,28.5471591949462900,92,135,94,88,60,15144,2189633819,2202966226,2213631195,2151697691,2164990610,2171437632,2175512457,2150364096,931,2,15,22308
1345504437,5807,70.8799972534179700,22.9706001281738280,35.2081985473632800,240.3058929443359400,70.8324432373046900,22.9790802001953120,28.4880409240722660,88,136,94,86,60,15145,2197111826,2211303177,2221953270,2152488374,2168868672,2176423204,2180210066,2150929718,716,2,15,12775
1345504492,5807,68.8700027465820300,23.0671997070312500,35.2011985778808600,240.3242950439453000,68.0507812500000000,23.0649509429931640,28.4524097442626950,83,133,96,87,59,15146,2201451181,2215464182,2225559698,2153043830,2171184685,2178986706,2182042221,2151208722,610,2,15,36140
1345504547,5808,67.1900024414062500,23.1403007507324220,35.1898994445800800,240.3471984863281200,65.8633270263671900,23.1324901580810550,28.4238700866699220,80,132,92,87,58,15155,2188600365,2197272585,2202765586,2151566372,2166053174,2171251849,2172747081,2150105362,511,2,15,13117
1345504637,5807,64.3399963378906200,23.3761997222900400,35.1934013366699200,240.9252014160156200,58.4504699707031250,23.3615303039550780,28.3052291870117200,77,134,94,86,62,15149,2200236516,2209798893,2215185252,2152954139,2172229686,2178478144,2179087899,2150940955,471,2,15,62977
1345504692,5811,62.1599998474121100,23.5617008209228500,35.1963005065918000,242.0146942138672000,52.3216400146484400,23.5510807037353500,28.1800098419189450,75,135,94,87,58,15143,2201999076,2210442944,2214560393,2153276635,2173728969,2179547858,2179285970,2151022546,211,1,16,39823
1345504747,5806,59.9599990844726560,23.7465991973876950,35.2015991210937500,243.6399993896484400,47.1282005310058600,23.7118396759033200,28.0433406829834000,74,135,93,86,58,15137,2225390198,2237689161,2243898532,2156447798,2186125275,2194805101,2193843620,2152939556,204,3,15,36805
1345504802,5807,58.0000000000000000,23.7826995849609380,35.2047004699707000,244.7601928710937500,45.1682281494140600,23.7725391387939450,27.9698295593261720,72,135,95,88,58,15133,2225939318,2236329444,2240672694,2156611812,2187993956,2195992722,2193902573,2153055990,696,2,16,33449
1345504857,5809,56.0800018310546900,23.8777999877929700,35.2036018371582000,245.3937072753906200,41.7771987915039060,23.8775997161865230,27.8999805450439450,76,133,95,88,58,15125,2253971273,2269296923,2276834121,2161616813,2202740425,2213716827,2210243026,2155435218,1167,2,16,38375
1345504947,5812,52.8800010681152340,24.1289005279541000,35.2034988403320300,246.7243957519531200,33.8720207214355500,24.1227397918701170,27.7445392608642580,69,134,96,87,56,15121,2255324397,2267599862,2272396123,2162644964,2208586194,2218931648,2213201590,2156026121,1338,2,16,16149
1345505002,5809,50.2999992370605500,24.1562995910644530,35.2042007446289060,247.4340972900390600,32.5963516235351560,24.1623306274414060,27.6981391906738280,68,135,95,88,56,15122,2276679277,2290242532,2295667236,2167369060,2223585472,2235193755,2226557074,2158233545,1193,2,16,42878
1345505057,5806,47.6199989318847660,24.3188991546630860,35.1994018554687500,246.8966979980468800,27.7493801116943360,24.3128204345703120,27.6617393493652340,66,136,99,87,59,15120,2286745609,2298770422,2303251922,2170733440,2233200640,2244526134,2233243830,2159543158,695,2,16,37996
1345505112,5810,45.3400001525878900,24.4284992218017580,35.1978988647460940,246.4801025390625000,24.1167106628417970,24.4256896972656250,27.6352596282959000,65,136,98,87,56,15125,2299899675,2312027940,2316601097,2174818322,2242869403,2254317778,2240778505,2161045961,452,2,15,31657
1345505167,5808,43.6100006103515600,24.5393009185791000,35.1925010681152340,246.2785034179687500,21.1505508422851560,24.5179004669189450,27.6076393127441400,64,136,95,87,58,15122,2305605796,2316297179,2319540461,2176837065,2249697801,2260518098,2245041380,2161951424,301,2,16,40239
1345505222,5808,42.4399986267089840,24.6898002624511720,35.1936988830566400,245.7935943603515600,16.1971702575683600,24.6720008850097660,27.5678901672363280,63,134,94,89,56,15124,2315937728,2327724882,2331803748,2180247606,2255364809,2265588690,2248366665,2162789522,781,3,15,19843
1345505336,5807,40.3100013732910160,25.0195007324218750,35.1939010620117200,244.0928955078125000,5.5033378601074220,25.0051403045654300,27.5108890533447270,61,136,96,87,57,15126,2319608950,2328030253,2328361590,2182237778,2270408301,2278262893,2256275584,2164340553,1421,3,15,64022
1345505439,5804,38.5600013732910160,25.2952995300292970,35.1986999511718750,242.6212005615234400,-3.5079629421234130,25.2863807678222660,27.4648399353027340,60,137,98,88,57,15128,2335879716,2343977545,2344285129,2187420068,2288073014,2294924653,2268289929,2166518144,525,2,16,55999
1345505601,5806,36.0600013732910160,25.8432006835937500,35.2275009155273440,238.3038940429687500,-19.9426403045654300,25.8005599975585940,27.4544601440429700,60,134,92,87,60,15108,2353874907,2362712685,2362969078,2196804937,2308843949,2312969974,2280492717,2169729746,3275,2,16,27489
1345505668,5805,34.4099998474121100,25.8745994567871100,35.2350997924804700,237.2635040283203000,-22.6044197082519530,25.8840007781982420,27.4683494567871100,59,132,95,86,54,15119,2365759049,2376817261,2378950665,2204631753,2324974354,2327390262,2290606491,2171630116,2888,2,16,11393
1345505771,5810,32.2200012207031250,25.9592990875244140,35.2401008605957000,236.3928985595703000,-25.4675197601318360,25.9738006591796880,27.4723701477050780,57,132,97,85,54,15117,2377805668,2388942765,2390794514,2212980187,2340420617,2339353398,2297572982,2173946834,2945,2,16,54273
1345505862,5809,30.3999996185302730,25.9976005554199220,35.2402992248535160,235.8477020263672000,-27.0200405120849600,26.0225105285644530,27.4778804779052730,59,131,95,87,53,15117,2391870089,2404450779,2406808969,2221620900,2361010294,2357304859,2309547017,2176968082,2804,2,16,48104
1345505952,5806,27.8099994659423830,26.0391998291015620,35.2380981445312500,235.6427001953125000,-28.0470790863037100,26.0547504425048830,27.4745101928710940,56,130,97,85,52,15130,2400091803,2411166171,2413323337,2234399030,2395654290,2387250450,2329587958,2182926299,2690,2,16,54562